Saint-Sauveur, Quebec

5:45 AM EDT on July 24, 2016 (GMT -0400)
Saint-Sauveur | | Change Station

Elev 920 ft 45.88 °N, 74.19 °W | Updated 8 seconds ago

Clear
Clear
50.0 °F
Feels Like 50.0 °F
N
0.0
Wind Variable Wind from West

Today
High -- | Low -- °F
--% Chance of Precip.
Yesterday
High -- | Low -- °F
Precip. -- in
Pressure 30.01 in
Visibility 25.0 miles
Clouds Clear
Dew Point 50 °F
Humidity 98%
Rainfall 0.00 in
Snow Depth Not available.
5:30 AM 8:34 PM
Waning Gibbous, 78% visible
METAR CYMX 240900Z VRB02KT 25SM SKC 12/11 A3000 RMK SLP160
Pressure 30.01 in
Visibility 25.0 miles
Clouds Clear
Dew Point 50 °F
Humidity 98%
Rainfall 0.00 in
Snow Depth Not available.
5:30 AM 8:34 PM
Waning Gibbous, 78% visible
METAR CYMX 240900Z VRB02KT 25SM SKC 12/11 A3000 RMK SLP160

10-Day Weather Forecast

Almanac

Astronomy

Jul. 24, 2016 Rise Set
Actual Time
Civil Twilight
Nautical Twilight
Astronomical Twilight
Moon
Length of Visible Light
Length of Day
Tomorrow will be .
, % of the Moon is Illuminated

Today's Extremes

Country Highs Country Lows

Community

WunderPhotos

Upload Photos

1,927,042 photos uploaded!

WunderBlog® & News

Nearby

Air Quality

  Air Quality AQ Index Pollutant
Not available.

Snow Depth

Station Depth Elevation

Earthquake Activity

City Distance Mag. Time & Date
Minimum magnitude displayed is 2.5.

Coastal Water Temperatures

Place Temperature

Stations

Nearby Weather Stations

Station Location Temp. Windchill Dew Point Humidity Wind Precip. Elev Updated Type
                   

Watches & Warnings

There are currently no watches in effect.